LiveATC.Net - Listen to live air traffic control over the Internet!


ICAO: LFLL  IATA: LYS   Airport: Lyon-Saint-Exupery Airport
City: Lyon
Country: France   Continent: Europe
LFLL METAR Weather: LFLL 021230Z 31011KT 280V350 9999 FEW015 SCT022 BKN033 07/03 Q1005 TEMPO 34017G30KT 4000 SHRA BKN020TCU
LFLL Flight Activity (FlightAware)

LFLL Tower
Feed Status: UP   Listeners: 1
Listen in your browser - HTML5 player (in browser, HTML5)
Click here to listen with your own player (launches your MP3 player)
Archive Access: LFLL Tower
FacilityFrequency
Lyon Tower120.450

Lyon FIS
Feed Status: UP   Listeners: 1
Listen in your browser - HTML5 player (in browser, HTML5)
Click here to listen with your own player (launches your MP3 player)
Archive Access: Lyon FIS
FacilityFrequency
Lyon FIS135.200

NOTICE

Unauthorized use prohibited. See LiveATC.net Terms of Service


Airport/ARTCC Code
Frequency Search
(e.g., 124.400, 128.75)
Site-wide search
 


Browse Feeds
Top 50 Feeds
HF Oceanic Feeds
Coverage Map
Bad Weather Areas

LiveATC FAQ
Offer LiveATC feed
Contact LiveATC.net
Press Inquiries

LiveATC on iPhone
LiveATC on Android

Windows Phone
Windows 8/10

LiveATC Mobile
(Mobile browser)

ATC Audio Archives
Interesting Recordings

LiveATC Forums


Home Page
About LiveATC.net
Make a Donation
Terms of Use
Privacy Policy

Canadian Air Freqs

AIRMETs/SIGMETs

FAA Airport Status
NAS Status
Arrival Demand


Server Software By:
Icecast.org
Liquidsoap